Flag for Germany Weather past 2 weeks in Bornheim (Rheinland), North Rhine-Westphalia, Germany

Now
81 °F

Passing clouds.


Feels Like: 82 °F
Forecast: 56 / 70 °F
Wind: 6 mph from South

Location: Bonn-Hangelar

Current Time: Aug 31, 2015 at 1:11:19 PM

Latest Report: Aug 31, 2015 at 12:00 PM


Visibility: 10 mi

Pressure: 29.82 "Hg

Humidity: 48%

Dew point: 60 °F

Location of Bornheim (Rheinland)Location

Historic Weather in Bornheim (Rheinland) — Graph

°F

Bornheim (Rheinland) temperature yesterday

Maximum temperature yesterday: 87 °F (at 4:00 PM)
Minimum temperature yesterday: 63 °F (at 7:00 AM)
Average temperature yesterday: 75 °F

Past Weeks' High & Low Weather Summary

 TemperatureHumidityPressure
High87 °F (Aug 30, 4:00 PM)100% (Aug 16, 9:00 PM)30.24 "Hg (Aug 16, 9:00 PM)
Low49 °F (Aug 19, 6:00 AM)33% (Aug 23, 3:00 PM)29.50 "Hg (Aug 24, 3:00 PM)
Average64 °F77%29.98 "Hg
* Reported Aug 16 12:00 Noon — Aug 31 12:00 Noon, Bornheim (Rheinland), Weather by CustomWeather, © 2015

Note: Actual official high and low records may vary slightly from our data, if they occured in-between our weather recording intervals... More about our weather records

Advertising

Bornheim (Rheinland) weather history for previous 24 hours

 ConditionsComfort  
Time TempWeatherWind HumidityBarometerVisibility
12:00 PM
Mon, Aug 31
81 °FPassing clouds.6 mph48%29.82 "Hg10 mi
11:00 AM78 °FPartly sunny.3 mph55%29.83 "Hg19 mi
10:00 AM76 °FPassing clouds.8 mph55%29.84 "Hg7 mi
9:00 AM74 °FSunny.6 mph60%29.85 "Hg18 mi
8:00 AM66 °FSunny.2 mph98%29.86 "Hg3 mi
7:00 AM67 °FOvercast.2 mph100%29.88 "Hg1 mi
5:00 AM69 °FFog.5 mph96%29.90 "Hg1 mi
4:00 AM70 °FFog.5 mph95%29.93 "Hg2 mi
3:00 AM71 °FFog.6 mph94%29.93 "Hg2 mi
2:00 AM72 °FOvercast.3 mph88%29.95 "Hg7 mi
1:00 AM74 °FOvercast.2 mph82%29.95 "Hg17 mi
11:00 PM
Sun, Aug 30
74 °FPassing clouds.3 mph86%29.94 "Hg15 mi
10:00 PM75 °FOvercast.3 mph82%29.97 "Hg16 mi
9:00 PM78 °FOvercast.1 mph74%29.97 "Hg19 mi
8:00 PM82 °FOvercast.1 mph65%29.96 "Hg25 mi
7:00 PM83 °FOvercast.3 mph62%29.97 "Hg25 mi
6:00 PM86 °FOvercast.5 mph54%29.96 "Hg19 mi
5:00 PM87 °FOvercast.6 mph53%29.96 "Hg19 mi
4:00 PM87 °FOvercast.6 mph51%29.96 "Hg9 mi
3:00 PM87 °FPartly sunny.7 mph52%29.97 "Hg7 mi
2:00 PM87 °FPartly sunny.7 mph53%29.97 "Hg6 mi
1:00 PM86 °FSunny.7 mph58%29.98 "Hg9 mi
Weather by CustomWeather, © 2015

See weather overviewHow to use our weather pages